Showing default

FLOCK 4BE 28, 60519

Orbit data source: Space-Track

FLOCK 4BE 28, 60519 is a payload satellite owned by Planet (US) in SSO that was launched on Fri, 16 Aug 2024 UTC via an FALCON 9 launch vehicle from the Air Force Western Test Range (AFWTR). Payload-class satellites include a variety of spacecraft equipped with specific instruments for various scientific and technological missions. These include communications satellites like Starlink; space stations such as the ISS; scientific satellites like the Hubble; Earth observation satellites from companies like Planet Labs, Umbra, and HawkEye 360; GPS; miniature CubeSats for education and research; and military/defense satellites.

Loading next visibility...
Identifier
60519, 2024-149BD
Orbit
SSO
Country
Flag of USUS
Related business
Manufacturer
Planet
Mission
Operational Commercial Imaging
Bus & Motor
CUBESAT 3U, Unknown motor
Mass
5.7 kg wet, 5.7 kg dry
Launch date (UTC)
2024-08-16 (2 years ago)
Launch vehicle
FALCON 9
Launch site
Air Force Western Test Range (AFWTR)
Object type
Payload
Rocket body
Debris
Shape & HBR
Box + 2 Pan, 1.0 m
Radar Cross Section
0.072 m², Medium (>0.1 m² and < 1m²)

Expand to show TLE details & history
Last TLE update: 21 hours ago

TLE from 21 hours ago
0 FLOCK 4BE 28
1 60519U 24149BD  26206.19686042  .00044670  00000-0  88103-3 0  9997
2 60519  97.3737 292.5938 0005458 148.0169 212.1413 15.47045437108315
Epoch: 2026-07-25T04:43Z
TLE epoch observation values (Epoch: 2026-07-25T04:43:28.740Z)
Latitude
-0.00002°
Longitude
-81.18855°
Altitude
431.648 km
Speed
7.651 km/s
True Right ascension
19h 30m 22s
True Declination
0° 00' 00"
Sunlit
Object was in full shadow at epoch
Visualization orbit readout
Latitude
Unknown
Longitude
Unknown
Altitude
Unknown
Speed
Unknown
Apparent Right ascension
Unknown
Apparent Declination
Unknown
Sunlit
N/A
Visualization observer readout
Local Sidereal Time
14:41:30
Azimuth
Unknown
Elevation
Unknown
Doppler factor
Unknown
Orbital elements
Apogee altitude
426.015 km
Perigee altitude
418.591 km
Semi-major axis
6,800.44 km
Eccentricity
0.00055
Inclination
97.3737°
RAAN
292.5938°
Arg. of periapsis
148.0169°
True anomaly
212.10805°
Mean anomaly
212.1413°
Eccentric anomaly
212.12467°
Mean motion
3.87024 °/min
Orbital period
93.02 mins
BSTAR
0.00088103
Loading maneuver chart data...
Computing Atmospheric mass density...
Loading historical data...
Loading historical data...
Loading historical data...
Loading historical data...
Loading historical data...
Loading historical data...
Loading historical data...

Documentation

Showing up to 5 results
|